Regional Weather Roundup
Issued by NWS Goodland, KS

Home | Current Version | Previous Version | Text Only | Print | Product List | Glossary On
Versions: 1 2 3 4 5 6 7 8 9 10 11 12 13 14 15 16 17 18 19 20 21 22 23 24 25 26 27 28 29 30 31 32 33 34 35 36 37 38 39 40 41 42 43 44 45 46 47 48 49 50
000
ASUS43 KGLD 241208
RWRGLD

GOODLAND FORECAST AREA HOURLY WEATHER ROUNDUP
NATIONAL WEATHER SERVICE GOODLAND KS
600 AM MDT FRI MAR 24 2017

...OFFICIAL OBSERVATIONS...

CITY           SKY/WX    TMP DP  RH WIND       PRES   REMARKS
GOODLAND KS    LGT RAIN  49  49 100 NE33G47   29.62R VSB 3/4
HILL CITY KS   CLOUDY    55  54  96 NE18G26   29.65S
IMPERIAL NEB   LGT RAIN  45  43  93 N31G40    29.80R FOG
MCCOOK NEB     CLOUDY    49  47  93 NE30G37   29.74R
AKRON CO       LGT RAIN  39  37  92 N33G45    29.82R FOG
BURLINGTON CO  TSTM      46  46 100 NE45G56   29.63R VSB 1/2
LIMON CO       LGT SNOW  32  32 100 N41G51    29.74R VSB 3/4 WCI  16
$$

...UNOFFICIAL OBSERVATIONS...

CITY           SKY/WX    TMP DP  RH WIND       PRES   REMARKS
LENORA KS        N/A     53  32  45 N9          N/A
NORTON KS      CLOUDY    54  48  82 N18G24    29.69S
SHARON SPRINGS   N/A     39  35  85 E9          N/A
TRENTON NEB      N/A     47  32  56 N15         N/A
YUMA CO        LGT RAIN  41  37  87 N29G39    29.78R
$$



USA.gov is the U.S. government's official web portal to all federal, state and local government web resources and services.